Regional Weather Roundup
Issued by NWS

Home | Current Version | Previous Version | Text Only | Print | Product List | Glossary On
Versions: 1 2 3 4 5 6 7 8 9 10 11 12 13 14 15 16 17 18 19 20 21 22 23 24 25 26 27 28 29 30 31 32 33 34 35 36 37 38 39 40 41 42 43 44 45 46 47 48 49 50
000
ASUS43 KTOP 292359
RWRKS

WEATHER ROUNDUP FOR KANSAS
NATIONAL WEATHER SERVICE GOODLAND KS
700 PM CDT FRI MAY 29 2015

NOTE:  "FAIR" INDICATES FEW OR NO CLOUDS BELOW 12,000 FEET WITH NO
SIGNIFICANT WEATHER AND/OR OBSTRUCTIONS TO VISIBILITY.

KSZ001>006-013>018-027>032-041>047-300100-
NORTHWEST KANSAS

CITY           SKY/WX    TMP DP  RH WIND       PRES   REMARKS
GOODLAND       MOSUNNY   62  53  72 NE17G25   30.14S
6HR MIN TEMP:  56; 6HR MAX TEMP:  74; 6HR PCP: TRACE;

HAYS           MOSUNNY   79  54  41 W5        29.97S
HILL CITY      LGT RAIN  59  55  87 N17G25    30.08R
6HR MIN TEMP:  59; 6HR MAX TEMP:  79; 6HR PCP:  0.05;

RUSSELL        SUNNY     79  56  45 W3        29.94F
6HR MIN TEMP:  74; 6HR MAX TEMP:  80;

$$

KSZ061>065-074>080-084>089-300100-
SOUTHWEST KANSAS

CITY           SKY/WX    TMP DP  RH WIND       PRES   REMARKS
DODGE CITY     MOSUNNY   78  54  43 N7        30.01S
6HR MIN TEMP:  74; 6HR MAX TEMP:  79;

ELKHART          N/A     73  52  47 NE7         N/A
GARDEN CITY    SUNNY     74  52  46 N9        30.03S
6HR MIN TEMP:  71; 6HR MAX TEMP:  76;

GREAT BEND     MOSUNNY   77  61  57 NW7       29.95S
LIBERAL        PTSUNNY   73  54  49 N10       30.06R
$$

KSZ066>073-081>083-090>101-300100-
SOUTHEAST KANSAS

CITY           SKY/WX    TMP DP  RH WIND       PRES   REMARKS
CHANUTE        CLOUDY    69  66  90 E6        29.94S
6HR MIN TEMP:  69; 6HR MAX TEMP:  70; 6HR PCP:  0.08;

COFFEYVILLE    CLOUDY    69  66  90 NE5       29.93R
6HR MIN TEMP:  67; 6HR MAX TEMP:  70; 6HR PCP:  0.33;

HUTCHINSON     CLOUDY    78  61  55 N3        29.94S
6HR MIN TEMP:  75; 6HR MAX TEMP:  82;

MEDICINE LODGE   N/A     79  60  52 CALM      29.94S
NEWTON         CLOUDY    75  61  60 CALM      29.96S
PARSONS        CLOUDY    69  67  93 CALM      29.95S
6HR MIN TEMP:  68; 6HR MAX TEMP:  70; 6HR PCP:  0.31;

WICHITA INTL   PTSUNNY   77  62  59 S5        29.93S
6HR MIN TEMP:  73; 6HR MAX TEMP:  80;

WICHITA JABRA  CLOUDY    75  65  70 CALM      29.94R
6HR MIN TEMP:  72; 6HR MAX TEMP:  77;

WINFIELD       PTSUNNY   74  65  73 SE5       29.94S
6HR MIN TEMP:  71; 6HR MAX TEMP:  78;

$$

KSZ007>012-019>026-033>040-048>060-102>105-300100-
NORTHEAST KANSAS

CITY           SKY/WX    TMP DP  RH WIND       PRES   REMARKS
CONCORDIA      PTSUNNY   77  60  55 S5        29.91F
6HR MIN TEMP:  71; 6HR MAX TEMP:  79;

EMPORIA        CLOUDY    71  65  81 SE6       29.93F
6HR MIN TEMP:  68; 6HR MAX TEMP:  73;

LAWRENCE       PTSUNNY   71  65  81 S7        29.94S
6HR MIN TEMP:  67; 6HR MAX TEMP:  73; 6HR PCP:  0.07;

MANHATTAN      CLOUDY    77  66  68 SW3       29.90F
6HR MIN TEMP:  71; 6HR MAX TEMP:  78;

OLATHE IND     CLOUDY    68  65  90 S10       29.96F
6HR MIN TEMP:  67; 6HR MAX TEMP:  69; 6HR PCP:  0.09;

OLATHE EXE     CLOUDY    69  65  86 S7        29.95F
6HR MIN TEMP:  67; 6HR MAX TEMP:  69; 6HR PCP:  0.08;

SALINA         CLOUDY    79  58  48 W3        29.92F
6HR MIN TEMP:  75; 6HR MAX TEMP:  81;

TOPEKA BILLARD PTSUNNY   72  66  81 S8        29.92F
6HR MIN TEMP:  69; 6HR MAX TEMP:  73; 6HR PCP:  0.02;

TOPEKA FORBES  PTSUNNY   73  65  75 S7        29.93F
6HR MIN TEMP:  69; 6HR MAX TEMP:  74; 6HR PCP:  0.01;

$$



USA.gov is the U.S. government's official web portal to all federal, state and local government web resources and services.